Location: Wanzleben
(52.0609°N, 11.4408°E)
Time: 03:51:58
(UTC+00:00)

Okean-O - Pass Details

Date: 18 September 2020
Orbit: 639 x 641 km, 98.2° (Epoch: 22 October)

Event Time Altitude Azimuth Distance (km) Brightness Sun altitude
Rises 18:07:12 0° 185° (S) 2,936 5.9 -7.8°
Reaches altitude 10° 18:09:31 10° 193° (SSW) 2,031 5.2 -8.2°
Maximum altitude 18:13:39 39° 262° (W) 973 4.2 -8.8°
Drops below altitude 10° 18:17:51 10° 332° (NNW) 2,047 5.9 -9.4°
Sets 18:20:12 0° 340° (NNW) 2,961 6.6 -9.8°
